Location: Gugi
(45.4667°N, 11.1000°E)
Time: 15:03:20
(UTC+00:00)

CSL-04 Rocket - Pass Details

Date: 17 November 2019
Orbit: 806 x 860 km, 99.0° (Epoch: 05 December)

Event Time Altitude Azimuth Distance (km) Brightness Sun altitude
Rises 17:51:17 0° 169° (S) 3,354 6.8 -22.2°
Reaches altitude 10° 17:53:39 10° 171° (S) 2,417 6.0 -22.6°
Maximum altitude 17:58:59 74° 256° (WSW) 853 3.8 -23.6°
Drops below altitude 10° 18:04:18 10° 342° (NNW) 2,406 6.2 -24.5°
Sets 18:06:39 0° 344° (NNW) 3,338 7.0 -24.9°
